Location: Angwan Shehu
(11.2514°N, 7.4613°E)
Time: 01:39:45
(UTC+00:00)

Cosmos 2228 Rocket - Pass Details

Date: 14 November 2019
Orbit: 619 x 651 km, 82.5° (Epoch: 10 December)

Event Time Altitude Azimuth Distance (km) Brightness Sun altitude
Rises 18:36:49 0° 192° (SSW) 2,885 6.9 -22.8°
Reaches altitude 10° 18:39:04 10° 197° (SSW) 1,982 6.0 -23.4°
Maximum altitude 18:43:21 54° 275° (W) 754 3.7 -24.4°
Enters shadow 18:45:54 23° 344° (NNW) 1,329 4.7 -25.0°
